Home   Weather   Lubango   Past weeks

Flag for Angola Past Weather in Lubango, Angola — Yesterday and Last 2 Weeks

Now
77 °F

Passing clouds.


Feels Like: 78 °F
Forecast: 59 / 69 °F
Wind: 3 mph from North

Location: Luanda Airport

Current Time: Feb 28, 2017 at 6:39:45 am

Latest Report: Feb 28, 2017 at 6:00 am


Visibility: 5 mi

Pressure: 29.80 "Hg (24.34 "Hg at 1765m altitude)

Humidity: 83%

Dew Point: 72 °F

Location of LubangoLocation

Past Weather in Lubango — Graph

°F

Lubango Temperature Yesterday

Maximum temperature yesterday: 86 °F (at 2:00 pm)
Minimum temperature yesterday: 77 °F (at 1:00 am)
Average temperature yesterday: 81 °F

High & Low Weather Summary for the Past Weeks

 TemperatureHumidityPressure
High90 °F (Feb 17, 1:00 pm)94% (Feb 19, 7:00 am)29.95 "Hg (Feb 19, 7:00 am)
Low77 °F (Feb 13, 5:00 am)18% (Feb 14, 12:00 pm)29.68 "Hg (Feb 27, 5:00 pm)
Average82 °F75%29.83 "Hg
* Reported Feb 13 5:00 am — Feb 28 5:00 am, Lubango, Weather by CustomWeather, © 2017

Note: Actual official high and low records may vary slightly from our data, if they occured in-between our weather recording intervals... More about our weather records

Advertising

Lubango Weather History for the Previous 24 Hours

Scroll right to see more
 ConditionsComfort  
Time TempWeatherWind HumidityBarometerVisibility
5:00 am
Tue, Feb 28
79 °FPassing clouds.2 mph79%29.80 "Hg5 mi
4:00 am79 °FPassing clouds.5 mph79%29.77 "HgN/A
3:00 am79 °FPassing clouds.9 mph79%29.77 "HgN/A
2:00 am79 °FPassing clouds.9 mph79%29.80 "HgN/A
1:00 am79 °FPassing clouds.7 mph79%29.80 "HgN/A
12:00 am79 °FPassing clouds.7 mph79%29.80 "HgN/A
11:00 pm
Mon, Feb 27
79 °FPassing clouds.9 mph84%29.83 "HgN/A
10:00 pm79 °FPassing clouds.5 mph84%29.80 "HgN/A
9:00 pm79 °FPassing clouds.9 mph84%29.80 "HgN/A
8:00 pm79 °FPassing clouds.9 mph84%29.74 "HgN/A
7:00 pm81 °FPassing clouds.9 mph74%29.71 "HgN/A
6:00 pm86 °FPassing clouds.12 mph62%29.71 "HgN/A
5:00 pm82 °FPassing clouds.14 mph70%29.68 "HgN/A
4:00 pm84 °FPassing clouds.10 mph66%29.71 "HgN/A
3:00 pm86 °FPassing clouds.12 mph59%29.71 "HgN/A
2:00 pm86 °FPassing clouds.9 mph62%29.74 "HgN/A
1:00 pm84 °FPassing clouds.9 mph66%29.77 "HgN/A
12:00 pm84 °FPartly sunny.9 mph62%29.80 "HgN/A
11:00 am84 °FPartly sunny.7 mph62%29.80 "HgN/A
10:00 am84 °FPartly sunny.5 mph62%29.83 "HgN/A
9:00 am81 °FPartly sunny.5 mph70%29.80 "HgN/A
8:00 am79 °FPartly sunny.8 mph74%29.80 "HgN/A
7:00 am77 °FPartly sunny.7 mph83%29.80 "HgN/A
6:00 am77 °FPassing clouds.6 mph83%29.77 "HgN/A
Weather by CustomWeather, © 2017

See weather overviewHow to use our weather pages